Anderson, SC

9:31 AM EDT on July 25, 2017 (GMT -0400)
Anderson Regional

Weather History for KAND - October, 2011

Change the Weather History Date:

Thursday, October 20, 2011

  Actual Average Record
Temperature  
Mean Temperature 50 °F -  
Max Temperature 54 °F 70 °F 88 °F (2016)
Min Temperature 46 °F 47 °F 30 °F (1989)
Degree Days  
Heating Degree Days 15    
Moisture  
Dew Point 38 °F    
Average Humidity 65    
Maximum Humidity 74    
Minimum Humidity 53    
Precipitation  
Precipitation 0.00 in - - ()
Sea Level Pressure  
Sea Level Pressure 29.85 in    
Wind  
Wind Speed 16 mph (West)    
Max Wind Speed 21 mph    
Max Gust Speed 32 mph    
Visibility 10 miles    
Events      
Averages and records for this station are not official NWS values.
T = Trace of Precipitation, MM = Missing Value Source: NWS Daily Summary

Daily Weather History Graph

Daily Weather History Graph

Search for Another Location

Airport or City:

Trip Planner

Search our weather history database for the weather conditions in past years. The results will help you decide how hot, cold, wet, or windy it might be!

Date:

Astronomy

Oct. 20, 2011 Rise Set
Actual Time 7:40 AM EDT 6:50 PM EDT
Civil Twilight 7:14 AM EDT 7:16 PM EDT
Nautical Twilight 6:45 AM EDT 7:45 PM EDT
Astronomical Twilight 6:16 AM EDT 8:14 PM EDT
Moon 12:41 AM EDT (10/20) 2:42 PM EDT (10/20)
Length of Visible Light 12h 01m
Length of Day
11h 10m
Last Quarter, 44% of the Moon is Illuminated
Oct 20
Last Quarter
Oct 26
New
Nov 2
First Quarter
Nov 10
Full
Nov 18
Last Quarter

Hourly Weather History & Observations

Time (EDT) Temp. Windchill Dew Point Humidity Pressure Visibility Wind Dir Wind Speed Gust Speed Precip Events Conditions
12:56 AM 48.0 °F - 39.0 °F 71% 29.65 in 10.0 mi West 19.6 mph 31.1 mph N/A   Clear
1:56 AM 48.0 °F - 39.9 °F 74% 29.66 in 10.0 mi WSW 17.3 mph 29.9 mph N/A   Clear
2:56 AM 48.0 °F - 39.0 °F 71% 29.67 in 10.0 mi West 19.6 mph 32.2 mph N/A   Clear
3:56 AM 46.9 °F - 39.0 °F 74% 29.68 in 10.0 mi WSW 16.1 mph 27.6 mph N/A   Clear
4:56 AM 46.9 °F - 39.0 °F 74% 29.69 in 10.0 mi WSW 13.8 mph 23.0 mph N/A   Clear
5:56 AM 46.9 °F - 39.0 °F 74% 29.71 in 10.0 mi WSW 17.3 mph 24.2 mph N/A   Clear
6:56 AM 46.9 °F - 39.0 °F 74% 29.73 in 10.0 mi WSW 17.3 mph 26.5 mph N/A   Clear
7:56 AM 46.9 °F - 37.9 °F 71% 29.76 in 10.0 mi WSW 16.1 mph 25.3 mph N/A   Scattered Clouds
8:56 AM 48.0 °F - 37.0 °F 66% 29.79 in 10.0 mi West 12.7 mph 23.0 mph N/A   Clear
9:56 AM 50.0 °F - 35.1 °F 57% 29.83 in 10.0 mi West 20.7 mph 28.8 mph N/A   Partly Cloudy
10:56 AM 52.0 °F - 35.1 °F 53% 29.86 in 10.0 mi West 20.7 mph 31.1 mph N/A   Mostly Cloudy
11:56 AM 51.8 °F - 37.4 °F 58% 29.88 in 10.0 mi WSW 19.6 mph 28.8 mph N/A   Overcast
12:56 PM 51.1 °F - 36.0 °F 56% 29.89 in 10.0 mi WSW 20.7 mph 28.8 mph N/A   Overcast
1:56 PM 54.0 °F - 37.0 °F 53% 29.88 in 10.0 mi West 18.4 mph 31.1 mph N/A   Overcast
2:56 PM 53.1 °F - 37.9 °F 57% 29.87 in 10.0 mi West 19.6 mph 26.5 mph N/A   Mostly Cloudy
3:56 PM 53.1 °F - 39.0 °F 59% 29.89 in 10.0 mi WSW 17.3 mph 25.3 mph N/A   Mostly Cloudy
4:56 PM 53.1 °F - 37.0 °F 55% 29.91 in 10.0 mi West 15.0 mph 20.7 mph N/A   Mostly Cloudy
5:56 PM 52.0 °F - 37.0 °F 57% 29.93 in 10.0 mi West 16.1 mph 21.9 mph N/A   Overcast
6:56 PM 51.1 °F - 37.9 °F 61% 29.94 in 10.0 mi WSW 12.7 mph - N/A   Scattered Clouds
7:45 PM 46.4 °F 43.5 °F 32.0 °F 57% 29.94 in 10.0 mi NW 5.8 mph - N/A   Clear
7:56 PM 50.0 °F - 37.9 °F 63% 29.96 in 10.0 mi West 10.4 mph - N/A   Clear
8:56 PM 50.0 °F - 39.2 °F 66% 29.98 in 10.0 mi WSW 11.5 mph - N/A   Clear
9:56 PM 48.0 °F - 39.0 °F 71% 30.00 in 10.0 mi WSW 5.8 mph - N/A   Clear
10:56 PM 48.2 °F - 39.2 °F 71% 30.02 in 10.0 mi West 6.9 mph - N/A   Clear
11:56 PM 46.9 °F - 39.0 °F 74% 30.02 in 10.0 mi West 6.9 mph - N/A   Clear